Weather History for Gizan, Saudi Arabia

Change the Weather History Date:

Wednesday, February 13, 2013

  Actual Average Record
Temperature  
Mean Temperature 82 °F -  
Max Temperature 89 °F 85 °F 100 °F (2005)
Min Temperature 75 °F 73 °F 62 °F (1999)
Cooling Degree Days 17    
Growing Degree Days 32 (Base 50)    
Moisture  
Dew Point 71 °F    
Average Humidity 69    
Maximum Humidity 79    
Minimum Humidity 51    
Precipitation  
Precipitation 0.00 in - - ()
Sea Level Pressure  
Sea Level Pressure 29.86 in    
Wind  
Wind Speed 6 mph ()    
Max Wind Speed 18 mph    
Max Gust Speed -    
Visibility 6.1 miles    
Events      
Averages and records for this station are not official NWS values.
T = Trace of Precipitation, MM = Missing Value Source: Averaged Metar Reports

Daily Weather History Graph

Daily Weather History Graph

Search for Another Location

Airport:

Trip Planner

Search our weather history database for the weather conditions in past years. The results will help you decide how hot, cold, wet, or windy it might be!

Date:

Astronomy

Feb. 13, 2013 Rise Set
Actual Time 6:36 AM AST 6:11 PM AST
Civil Twilight 6:14 AM AST 6:33 PM AST
Nautical Twilight 5:49 AM AST 6:58 PM AST
Astronomical Twilight 5:23 AM AST 7:24 PM AST
Moon 8:32 AM AST (2/13) 9:08 PM AST (2/13)
Length of Visible Light 12h 18m
Length of Day
11h 34m
Waxing Crescent, 11% of the Moon is Illuminated
Feb 13
Waxing Crescent
Feb 17
First Quarter
Feb 25
Full
Mar 5
Last Quarter
Mar 11
New

Hourly Weather History & Observations

Time (AST) Temp. Heat Index Dew Point Humidity Pressure Visibility Wind Dir Wind Speed Gust Speed Precip Events Conditions
12:00 AM 80 °F - 72 °F 69% 29.86 in 6 mi North 5.8 mph - -   Partly Cloudy
12:00 AM 80.6 °F 84.6 °F 71.6 °F 74% 29.89 in 6.2 mi North 5.8 mph - N/A   Scattered Clouds
1:00 AM 78.8 °F - 69.8 °F 74% 29.86 in - NNW 5.8 mph - N/A   Clear
2:00 AM 78.8 °F - 69.8 °F 74% 29.86 in - Calm Calm - N/A   Clear
3:00 AM 78 °F - 70 °F 69% 29.83 in 6 mi Calm Calm - -  
3:00 AM 77.0 °F - 69.8 °F 78% 29.86 in - Calm Calm - N/A   Clear
4:00 AM 77.0 °F - 69.8 °F 78% 29.86 in 6.2 mi Calm Calm - N/A   Scattered Clouds
5:00 AM 78.8 °F - 68.0 °F 69% 29.86 in 6.2 mi Calm Calm - N/A   Scattered Clouds
6:00 AM 77 °F - 68 °F 67% 29.87 in 6 mi SE 4.6 mph - -   Scattered Clouds
6:00 AM 77.0 °F - 68.0 °F 74% 29.86 in 6.2 mi SE 4.6 mph - N/A   Partly Cloudy
7:00 AM 78.8 °F - 68.0 °F 69% 29.86 in 6.2 mi Calm Calm - N/A   Partly Cloudy
8:00 AM 80.6 °F 84.6 °F 71.6 °F 74% 29.89 in 6.2 mi Calm Calm - N/A   Partly Cloudy
9:00 AM 83 °F - 70 °F 56% 29.89 in 6 mi NNW 5.8 mph - -   Scattered Clouds
9:00 AM 82.4 °F 86.3 °F 69.8 °F 66% 29.92 in 6.2 mi NNW 5.8 mph - N/A   Partly Cloudy
10:00 AM 86.0 °F 91.8 °F 71.6 °F 62% 29.92 in 6.2 mi WSW 5.8 mph - N/A   Partly Cloudy
11:00 AM 86.0 °F 90.4 °F 69.8 °F 58% 29.92 in 6.2 mi WSW 11.5 mph - N/A   Partly Cloudy
12:00 PM 87 °F - 72 °F 51% 29.89 in 6 mi WSW 15.0 mph - -   Scattered Clouds
12:00 PM 86.0 °F 91.8 °F 71.6 °F 62% 29.89 in 6.2 mi WSW 15.0 mph - N/A   Partly Cloudy
1:00 PM 87.8 °F 93.8 °F 71.6 °F 58% 29.86 in 6.2 mi SW 18.4 mph - N/A   Partly Cloudy
2:00 PM 87.8 °F 93.8 °F 71.6 °F 58% 29.86 in 6.2 mi WSW 18.4 mph - N/A   Partly Cloudy
3:00 PM 87 °F - 73 °F 56% 29.81 in 6 mi WSW 15.0 mph - -   Scattered Clouds
3:00 PM 86.0 °F 93.4 °F 73.4 °F 66% 29.83 in 6.2 mi WSW 15.0 mph - N/A   Partly Cloudy
4:00 PM 84.2 °F 92.3 °F 75.2 °F 74% 29.83 in 6.2 mi WSW 15.0 mph - N/A   Scattered Clouds
5:00 PM 84.2 °F 90.9 °F 73.4 °F 70% 29.80 in 6.2 mi West 13.8 mph - N/A   Scattered Clouds
6:00 PM 82 °F - 73 °F 69% 29.81 in 6 mi West 10.4 mph - -   Mostly Cloudy
6:00 PM 82.4 °F 88.2 °F 73.4 °F 74% 29.83 in 6.2 mi West 10.4 mph - N/A   Mostly Cloudy
7:00 PM 80.6 °F 85.4 °F 73.4 °F 79% 29.83 in 6.2 mi WNW 10.4 mph - N/A   Mostly Cloudy
8:00 PM 80.6 °F 85.4 °F 73.4 °F 79% 29.86 in 6.2 mi WNW 6.9 mph - N/A   Scattered Clouds
9:00 PM 81 °F - 73 °F 72% 29.86 in 6 mi WNW 8.1 mph - -   Scattered Clouds
9:00 PM 80.6 °F 85.4 °F 73.4 °F 79% 29.86 in 6.2 mi WNW 8.1 mph - N/A   Partly Cloudy
10:00 PM 80.6 °F 85.4 °F 73.4 °F 79% 29.86 in 6.2 mi Calm Calm - N/A   Partly Cloudy
11:00 PM 80.6 °F 85.4 °F 73.4 °F 79% 29.86 in 6.2 mi WNW 5.8 mph - N/A   Mostly Cloudy